Ana Sayfa
METAR-TAF:

METAR-TAF

Havaalanları :

Hemphill County Airport

Canadian, Teksas, Amerika Birleşik Devletleri

Enlem: 35-54N, Boylam: 100-24W, yükseklik: 730 m

Güncel hava durumu gözlemi

Rapor saat 17:55 UTC de 20 dakika önce yapıldı.
Rüzgar kuzey/kuzeydoğudan 4 kt
Sıcaklık 10°C
Nem 40%
Basınç 1019 hPa
Görüş mesafesi: 16.1 km
Açık gökyüzü

METAR: KHHF 041755Z AUTO 02004KT 10SM CLR 10/M03 A3010 RMK AO2 T01001033 10100 21045

Saat: 13:15 (18:15 UTC)


TAF: eksik

4.000'den fazla havaalanı için hava durumu gözlemleri ve tahminleri (METAR ve TAF raporları).

Kullanılabilir istasyonlar harita üzerinde sarı ve kırmızı noktalarla gösterilir.

İstasyonun adını görmek için fareyi noktanın üzerinde gezdirin.

Sonrasında hava gözlem ve tahminlerini görmek için tıklayın.

Haritayı değiştirmek için: yaklaştırmak için siyah artı işaretli yeşil düğmeye ve uzaklaştırmak için de eksi işaretli düğmeye hızla tıklayın; bitişik haritalar için yeşil okları kullanın.


METAR-TAF: